Regional Weather Roundup
Issued by NWS Sioux Falls, SD

Home | Current Version | Previous Version | Graphics & Text | Print | Product List | Glossary Off
Versions: 1 2 3 4 5 6 7 8 9 10 11 12 13 14 15 16 17 18 19 20 21 22 23 24 25 26 27 28 29 30 31 32 33 34 35 36 37 38 39 40 41 42 43 44 45 46 47 48 49 50

000
ASUS43 KFSD 211710
RWRFSD

WEATHER ROUNDUP FOR SE SOUTH DAKOTA/SW MINNESOTA/NW IOWA
NATIONAL WEATHER SERVICE SIOUX FALLS SD
1200 PM CDT THU AUG 21 2014

NOTE: "FAIR" INDICATES FEW OR NO CLOUDS BELOW 12,000 FEET WITH NO
SIGNIFICANT WEATHER AND OR OBSTRUCTIONS TO VISIBILITY.


SDZ038>040-050-052>070-211800-
SOUTHEAST SOUTH DAKOTA

CITY           SKY/WX    TMP DP  RH WIND       PRES   REMARKS
CHAMBERLAIN    SUNNY     77  66  69 NW7       29.85S
HURON          MOSUNNY   80  68  66 NW13      29.80R
MADISON        FAIR      82  77  83 NW7       29.79S
MITCHELL       PTSUNNY   81  72  74 NW10      29.80S
SIOUX FALLS    MOSUNNY   85  74  69 W6        29.77S
WINNER         FAIR      80  65  59 N5        29.88S
YANKTON        PTSUNNY   82  73  74 S7        29.78R
$$

MNZ071-072-080-081-089-090-097-098-211800-
SOUTHWEST MINNESOTA

CITY           SKY/WX    TMP DP  RH WIND       PRES   REMARKS
FAIRMONT       PTSUNNY   79  70  73 MISG      29.77F
JACKSON        PTSUNNY   81  70  69 SW10      29.79F
LUVERNE        SUNNY     82  70  65 SW9       29.78S
MARSHALL       PTSUNNY   84  72  65 NW6       29.73S
MONTEVIDEO     CLOUDY    82  81  94 W3        29.75F HX  95
PIPESTONE      MOSUNNY   81  73  78 W5        29.78S
REDWOOD FALLS  PTSUNNY   82  73  74 SW9       29.72F
TRACY          MOSUNNY   83  75  76 SW6       29.76R
WINDOM         MOSUNNY   84  70  61 S15       29.77R
WORTHINGTON    MOSUNNY   84  21  10 SW14G21   29.80S
$$

IAZ001>003-012>014-020>022-031-032-NEZ013-014-SDZ071-211800-
NORTHWEST IOWA

CITY           SKY/WX    TMP DP  RH WIND       PRES   REMARKS
CHEROKEE       SUNNY     83  71  68 SW16      29.82S
DENISON        MOSUNNY   82  70  65 VRB6      29.82F
ESTHERVILLE    PTSUNNY   79  72  79 MISG      29.78F
LE MARS        SUNNY     82  70  65 SW12      29.80S
ORANGE CITY    SUNNY     82  68  61 S10       29.80S
SHELDON        SUNNY     81  72  74 S12       29.78F
SIOUX CITY     SUNNY     85  71  63 SW8       29.80S
SPENCER        MOSUNNY   83  71  67 S13       29.80S
STORM LAKE     MOSUNNY   82  75  78 SW15      29.84R
$$

ABBREVIATIONS USED IN REMARKS
   TC - TEMPERATURE IN CELSIUS
  WCI - WIND CHILL INDEX
   HX - HEAT INDEX
  VSB - VISIBILITY



USA.gov is the U.S. government's official web portal to all federal, state and local government web resources and services.